Showing default

LEMUR-2 GRAM-E-SUE, 67370

Orbit data source: Space-Track

LEMUR-2 GRAM-E-SUE, 67370 is a payload satellite owned by Spire/Lux (US) in SSO that was launched on Sun, 11 Jan 2026 UTC via an FALCON 9 launch vehicle from the Air Force Western Test Range (AFWTR). Payload-class satellites include a variety of spacecraft equipped with specific instruments for various scientific and technological missions. These include communications satellites like Starlink; space stations such as the ISS; scientific satellites like the Hubble; Earth observation satellites from companies like Planet Labs, Umbra, and HawkEye 360; GPS; miniature CubeSats for education and research; and military/defense satellites.

Loading next visibility...
Identifier
67370, 2026-004H
Orbit
SSO
Country
Flag of USUS
Related business
Manufacturer
Spire/Glasgow
Mission
Operational spacecraft
Bus & Motor
CUBESAT 3U, Unknown motor
Mass
4.6 kg wet, 4.6 kg dry
Launch date (UTC)
2026-01-11 (3 months ago)
Launch vehicle
FALCON 9
Launch site
Air Force Western Test Range (AFWTR)
Object type
Payload
Rocket body
Debris
Shape & HBR
Unknown shape, 0.1 m
Radar Cross Section
RCS unknown

Expand to show TLE details & history
Last TLE update: 7 hours ago

TLE from 7 hours ago
0 LEMUR-2 GRAM-E-SUE
1 67370U 26004H   26095.48934660  .00004945  00000-0  54313-3 0  9998
2 67370  97.7988  95.2070 0008128  36.7679 323.4094 14.88083407 12486
Epoch: 2026-04-05T11:44Z
TLE epoch observation values (Epoch: 2026-04-05T11:44:39.546Z)
Latitude
0.00002°
Longitude
85.24819°
Altitude
602.404 km
Speed
7.561 km/s
True Right ascension
06h 20m 49s
True Declination
0° 00' 00"
Sunlit
Object was in daylight at epoch
Visualization orbit readout
Latitude
Unknown
Longitude
Unknown
Altitude
Unknown
Speed
Unknown
Apparent Right ascension
Unknown
Apparent Declination
Unknown
Sunlit
N/A
Visualization observer readout
Local Sidereal Time
00:59:51
Azimuth
Unknown
Elevation
Unknown
Doppler factor
Unknown
Orbital elements
Apogee altitude
606.622 km
Perigee altitude
595.277 km
Semi-major axis
6,979.087 km
Eccentricity
0.00081
Inclination
97.7988°
RAAN
95.207°
Arg. of periapsis
36.7679°
True anomaly
323.35383°
Mean anomaly
323.4094°
Eccentric anomaly
323.38162°
Mean motion
3.72259 °/min
Orbital period
96.71 mins
BSTAR
0.00054313
Loading maneuver chart data...
Computing Atmospheric mass density...
Loading historical data...
Loading historical data...
Loading historical data...
Loading historical data...
Loading historical data...
Loading historical data...
Loading historical data...

Documentation

Showing up to 5 results
|